Location: Borgo
(42.3939°N, 9.2791°E)
Time: 23:48:09
(UTC+00:00)

Meteor 2-4 Rocket - Pass Details

Date: 27 February 2020
Orbit: 799 x 908 km, 81.2° (Epoch: 09 April)

Event Time Altitude Azimuth Distance (km) Brightness Sun altitude
Rises 18:50:14 0° 352° (N) 3,534 7.1 -19.3°
Reaches altitude 10° 18:52:43 10° 354° (N) 2,596 6.4 -19.8°
Maximum altitude 18:58:39 71° 79° (ENE) 962 3.7 -20.9°
Enters shadow 19:03:43 15° 162° (SSE) 2,270 5.7 -21.8°
